STARLINK-32685, 62500

Orbit data source: Space-Track

STARLINK-32685, 62500 is a payload satellite owned by SpaceX/Seattle (US) in LEO that was launched on Mon, 06 Jan 2025 UTC via an FALCON 9 launch vehicle from the Air Force Eastern Test Range (AFETR). Payload-class satellites include a variety of spacecraft equipped with specific instruments for various scientific and technological missions. These include communications satellites like Starlink; space stations such as the ISS; scientific satellites like the Hubble; Earth observation satellites from companies like Planet Labs, Umbra, and HawkEye 360; GPS; miniature CubeSats for education and research; and military/defense satellites.

Loading next visibility...
Identifier
62500, 2025-003P
Orbit
LEO
Country
Flag of USUS
Related business
Manufacturer
SpaceX/Seattle
Mission
Operational Commercial Communications
Bus & Motor
STARLINK V2M, Unknown motor
Mass
730 kg wet, ~700 kg dry
Launch date (UTC)
2025-01-06 (1 year ago)
Launch vehicle
FALCON 9
Launch site
Air Force Eastern Test Range (AFETR)
Object type
Payload
Rocket body
Debris
Shape & HBR
Box + 2 Pan, 17.7 m
Radar Cross Section
33.884 m², Large (>1 m²)

Expand to show TLE details & history
Last TLE update: 10 hours ago

TLE from 10 hours ago
0 STARLINK-32685
1 62500U 25003P   26171.44444221  .00001406  00000-0  60560-4 0  9997
2 62500  43.0053  68.9173 0001255 267.0490  93.0218 15.27597968 82333
Epoch: 2026-06-20T10:39Z
TLE epoch observation values (Epoch: 2026-06-20T10:39:59.806Z)
Latitude
-0.00005°
Longitude
0.25908°
Altitude
482.817 km
Speed
7.626 km/s
True Right ascension
04h 35m 40s
True Declination
0° 00' 00"
Sunlit
Object was in daylight at epoch
Visualization orbit readout
Latitude
Unknown
Longitude
Unknown
Altitude
Unknown
Speed
Unknown
Apparent Right ascension
Unknown
Apparent Declination
Unknown
Sunlit
N/A
Visualization observer readout
Local Sidereal Time
07:16:29
Azimuth
Unknown
Elevation
Unknown
Doppler factor
Unknown
Orbital elements
Apogee altitude
485.801 km
Perigee altitude
484.078 km
Semi-major axis
6,863.077 km
Eccentricity
0.00013
Inclination
43.0053°
RAAN
68.9173°
Arg. of periapsis
267.049°
True anomaly
93.03616°
Mean anomaly
93.0218°
Eccentric anomaly
93.02898°
Mean motion
3.81738 °/min
Orbital period
94.31 mins
BSTAR
0.00006056
Loading maneuver chart data...
Computing Atmospheric mass density...
Loading historical data...
Loading historical data...
Loading historical data...
Loading historical data...
Loading historical data...
Loading historical data...
Loading historical data...

Documentation

Showing up to 5 results
|